Location: Shepherdstown, WV
(39.4326°N, 77.8042°W)
Time: 14:50:44
(UTC-04:00)

Tiros 1 despin weight - Pass Details

Date: 02 August 2021
Orbit: 593 x 641 km, 48.2° (Epoch: 18 September)

Event Time Altitude Azimuth Distance (km) Brightness Sun altitude
Rises 18:44:24 0° 302° (WNW) 2,943 ? 17.3°
Reaches altitude 10° 18:46:48 10° 307° (NW) 2,031 ? 16.8°
Maximum altitude 18:51:23 52° 24° (NNE) 792 ? 15.9°
Drops below altitude 10° 18:55:54 10° 101° (ESE) 2,009 ? 15.1°
Sets 18:58:16 0° 107° (ESE) 2,908 ? 14.6°
